Presure
121 129 127 112 82 179 125 111 134 124 109 146 128 169 165 104 155 143 125 159 136 125 133 160 137 148 173 145 129 131 145 131 130 146 121 133 128 133 121 136 119 122 131
130 124 104 103 113 104 97 121 145 155 172 106 134 135 117 133 180 126 140 142 169 120 138 173 104 143 154 119 110 131 159 155 132 111 190 132 128 163 169 171 123 126 131
115 89 115 100 111 139 137 130 140 143 135 129 142 166 146 187 173 148 86 153 140 161 163 152 170 191 162 218 125 154 114 120 122 156 123 182 127 144 153 162 149 134 160
88 89 107 113 118 92 93 152 133 118 151 129 126 78 167 128 134 161 195 136 95 179 139 147 202 172 111 152 155 119 116 174 120 128 131 125 131 117 144 121 178 132 153
136 117 115 99 149 121 200 131 207 185 142 144 142 137 160 127 131 136 129 143 161 153 172 132 161 163 179 177 201 155 147 163 143 123 122 122 123 167 125 160 171 172 135
149 136 123 122 143 143 127 182 126 121 128 142 140 135 176 130 166 121 192 130 172 150 186 152 181 138 202 214 134 141 159 156 126 151 145 127 159 148 131 131 139 125 147
139 140 166 151 108 92 166 176 178 187 177 122 152 132 137 128 124 127 145 170 135 141 188 155 146 125 184 128 207 206 144 197 199 163 132 118 168 179 136 140 176 171 180
144 124 150 128 169 141 129 134 202 129 125 159 118 139 126 163 145 118 113 141 122 128 135 153 139 110 144 141 149 159 155 127 160 204 153 128 152 131 148 182 165 136 158
166 161 144 157 135 129 153 128 194 120 153 144 126 130 121 162 133 129 124 178 131 127 132 165 132 153 170 120 126 125 125 111 128 175 132 180 170 150 165 143 132 188 200
142 156 140 148 118 116 144 165 130 132 125 121 133 169 165 124 106 126 181 138 134 152 121 133 124 137 136 131 127 129 130 129 207 200 144 154 184 159 185 204 189 200 188
139 130 141 128 128 123 129 127 129 121 120 125 124 133 120 174 165 133 131 120 145 160 156 141 145 165 128 127 138 142 181 212 206 209 205 193 188 181 181 183 196 190 178
134 120 138 142 122 144 126 148 171 126 135 130 126 117 122 132 130 134 135 133 171 187 181 141 147 181 158 175 158 150 161 215 216 156 198 169 163 178 190 194 154 190 190
122 124 124 119 135 123 131 136 126 123 127 126 126 133 129 128 136 135 137 141 179 169 142 161 187 169 204 192 174 225 190 155 189 201 173 173 211 207 203 197 200 200 198
147 146 130 149 128 127 128 120 117 122 124 125 180 132 134 135 138 136 187 187 143 140 183 211 247 143 183 182 187 253 220 172 220 199 179 167 196 207 202 199 197 190 207
141 140 132 139 131 128 131 135 130 130 131 131 134 135 135 144 187 160 150 187 190 202 277 196 273 279 193 246 242 173 174 188 217 212 207 200 190 184 204 206 206 209 180
127 138 142 140 142 140 136 131 135 135 134 134 134 137 193 171 196 199 209 209 229 300 266 259 251 262 230 246 240 212 182 200 193 206 173 203 204 201 209 220 201 205 207
142 142 144 136 139 143 140 140 142 137 130 171 198 199 186 190 188 213 223 262 274 260 251 239 245 181 214 186 176 187 194 202 151 224 200 213 184 173 203 210 212 211 215
145 144 142 142 142 140 135 129 136 152 177 180 181 192 195 201 225 156 265 251 247 154 211 240 190 213 230 230 232 231 235 227 195 144 168 178 173 183 194 195 202 208 219
147 151 259 140 140 137 141 203 271 252 209 171 216 248 257 254 258 238 163 235 234 207 190 180 227 225 210 147 196 197 214 147 164 172 194 183 189 189 221 238 215 205 263
150 147 205 206 211 273 275 278 271 266 242 242 262 195 253 247 241 180 161 181 228 216 205 168 217 204 205 209 218 188 159 191 195 213 205 171 215 242 221 224 228 243 220
268 266 266 263 267 257 258 261 258 251 251 251 248 243 246 185 180 216 209 196 226 207 207 214 201 223 189 151 160 157 173 191 191 181 205 129 224 207 215 229 244 261 264
255 267 261 255 259 253 253 250 250 240 244 210 250 244 229 231 230 231 207 196 220 225 219 223 229 231 160 153 257 192 201 191 191 212 220 189 215 238 251 279 270 275 271
239 239 241 249 238 245 247 229 224 216 233 203 218 220 208 212 223 223 199 215 227 187 214 237 163 161 155 158 190 206 217 222 183 209 191 206 254 280 246 280 282 285 278
218 126 175 198 228 210 201 148 167 225 209 231 213 143 168 196 228 165 223 212 186 236 220 184 157 153 151 182 183 183 212 236 207 188 230 203 293 291 292 301 301 311 379
148 237 212 137 236 236 222 117 244 224 142 224 227 226 126 170 275 165 244 188 193 200 151 151 155 153 219 214 233 233 232 192 209 201 249 305 306 314 319 472 439 385 402
125 125 131 136 226 230 206 237 212 150 184 220 238 200 195 227 238 232 211 203 212 202 212 151 157 158 159 158 227 227 224 232 217 229 295 319 333 516 497 527 446 411 384
Wind_Speed
40 32 39 34 23 36 43 32 39 35 41 37 45 46 47 36 47 41 45 43 45 48 47 49 49 49 55 52 51 53 54 52 58 53 63 48 73 66 55 41 56 54 71
43 42 33 34 39 36 32 44 39 38 45 38 45 46 45 46 55 52 48 46 49 48 54 56 48 53 53 57 58 57 58 54 46 62 58 53 52 58 60 60 68 68 75
41 34 41 35 42 46 42 44 42 41 44 47 42 52 41 56 55 44 32 45 49 51 50 52 53 55 56 55 58 57 53 60 64 55 73 57 75 71 62 62 64 76 65
32 36 36 38 48 40 39 48 46 48 43 50 52 27 54 51 49 57 51 53 31 55 54 53 53 54 46 60 59 43 61 60 69 65 67 74 73 47 72 68 65 68 74
52 48 46 37 51 45 54 46 55 53 48 45 46 51 53 50 50 48 54 49 57 52 57 61 57 60 64 62 60 61 64 66 69 65 74 74 77 62 76 72 66 61 82
47 51 42 48 50 50 52 55 51 45 53 51 51 51 56 53 57 58 64 59 61 51 64 56 63 64 62 59 64 64 65 66 76 68 58 53 69 71 83 80 71 75 79
53 53 45 47 49 42 50 50 56 60 54 53 47 52 53 54 61 59 46 64 55 54 64 51 58 70 69 68 66 70 64 71 73 74 81 72 68 78 82 83 72 72 73
53 51 50 44 53 56 41 47 66 49 53 50 52 52 60 59 52 50 66 53 60 65 57 61 66 60 66 63 64 65 65 83 70 79 81 84 77 74 85 76 77 89 80
47 48 47 47 39 51 53 51 66 57 55 50 59 57 62 60 52 53 65 71 64 70 65 71 70 63 70 83 84 84 82 62 84 80 89 76 80 79 84 91 87 77 75
48 44 59 41 55 54 47 62 55 57 58 64 61 65 68 63 62 63 75 65 62 65 75 70 74 73 72 78 82 86 85 87 81 80 85 87 85 87 82 77 81 76 79
49 54 48 57 60 61 60 59 58 60 62 62 62 62 63 72 76 66 69 79 63 77 72 70 70 77 81 83 83 85 85 82 83 80 80 84 83 81 82 84 83 82 78
51 56 50 47 65 48 63 53 69 63 64 65 66 63 67 68 69 69 73 77 80 83 80 76 82 85 85 88 83 85 88 84 86 85 87 80 82 84 87 88 82 86 86
58 62 62 63 57 64 63 60 66 68 66 66 70 71 71 73 72 75 75 79 79 82 79 84 87 87 86 87 88 80 84 88 84 86 83 85 93 91 91 90 92 94 93
50 50 66 54 69 68 68 66 66 71 73 73 80 74 74 78 78 78 84 81 79 83 84 90 87 90 87 87 88 75 84 86 95 89 87 83 88 93 94 90 89 88 100
58 60 67 63 72 75 72 68 75 75 75 75 76 75 78 79 86 82 83 84 83 87 73 85 65 65 84 70 74 79 83 84 88 90 89 87 88 90 95 96 97 99 93
68 66 63 66 66 67 71 72 72 73 75 76 77 78 87 85 89 89 91 90 91 57 61 61 63 60 72 70 73 78 84 83 86 86 86 90 93 94 98 104 100 97 96
68 68 67 71 70 70 70 71 72 73 72 80 85 87 85 88 87 93 93 67 48 56 54 60 59 79 77 83 80 81 82 82 77 91 86 91 88 87 93 97 100 102 104
68 69 69 69 69 70 70 68 73 77 78 80 83 88 89 92 94 78 50 66 52 69 69 59 82 75 70 75 78 83 86 88 84 82 81 83 85 84 87 88 91 100 112
71 69 36 70 70 72 74 66 61 79 85 79 83 81 65 65 55 58 69 65 63 74 69 78 69 71 73 71 82 84 85 80 81 80 85 84 85 86 109 118 94 102 116
71 72 46 50 50 31 35 36 43 49 52 54 48 66 49 53 57 68 72 84 67 72 72 73 76 80 81 83 86 81 79 84 83 91 94 82 105 106 113 99 111 107 112
20 21 24 29 29 35 36 37 39 44 45 47 51 53 51 69 82 69 73 82 70 80 82 76 76 82 77 72 75 80 77 80 84 83 96 66 114 106 117 120 117 109 108
18 16 23 26 29 32 35 39 39 45 46 57 48 51 59 59 61 65 78 74 78 78 79 82 89 90 70 75 92 78 84 85 81 101 106 83 119 118 109 105 107 107 106
23 23 27 27 34 32 31 45 53 60 52 71 63 62 77 75 71 74 70 75 81 75 82 89 66 70 73 79 83 85 89 92 68 98 78 97 116 113 118 113 112 114 110
42 45 48 50 41 57 70 60 60 58 67 59 72 65 66 70 75 65 74 74 70 79 74 71 69 73 76 80 85 88 89 103 98 72 117 95 112 113 117 117 114 118 81
42 36 38 46 44 48 60 52 56 59 50 70 69 69 61 63 66 67 68 68 72 73 70 71 75 74 82 89 98 100 106 76 104 95 121 117 112 113 114 57 46 68 58
51 52 53 52 55 56 50 55 61 61 67 71 70 69 67 65 68 68 69 71 74 78 81 74 78 79 84 85 101 110 112 119 105 118 117 118 113 37 35 47 51 46 36
Wind_Direction
270 267 266 282 301 267 291 290 282 290 300 282 294 283 282 296 284 287 301 289 296 300 302 288 295 298 292 295 299 299 300 296 302 311 315 308 309 310 326 309 334 335 321
256 265 287 290 292 298 296 296 275 276 277 299 286 290 305 291 277 302 292 293 287 305 292 285 318 293 292 306 322 301 297 300 304 332 295 302 322 293 293 295 322 322 319
275 292 276 293 285 282 286 289 278 277 284 291 282 279 284 273 281 287 304 287 291 287 290 292 290 286 290 277 297 294 322 304 313 295 314 296 310 297 296 298 302 307 300
290 290 284 287 287 300 310 278 283 291 274 291 291 304 281 290 289 288 283 292 311 280 295 295 282 288 319 292 292 304 317 290 310 294 312 307 309 315 300 320 298 313 301
264 275 281 297 283 277 259 278 262 279 283 279 284 283 278 296 294 300 295 284 283 290 286 295 289 291 288 288 281 294 295 294 304 301 309 312 314 294 317 299 294 292 306
254 265 278 282 272 274 289 274 291 289 288 279 279 282 274 285 280 301 280 302 290 291 284 290 289 290 286 284 294 291 292 294 301 290 293 309 299 305 306 307 305 312 300
257 261 263 275 283 294 266 265 275 276 273 297 283 285 279 288 291 290 295 288 284 293 286 293 294 300 290 295 284 282 288 288 285 290 296 315 294 298 294 299 292 294 293
253 269 257 271 269 276 268 266 266 273 283 284 296 277 285 283 287 289 309 298 296 292 283 300 293 316 296 290 291 295 294 298 295 282 288 302 290 304 300 293 297 302 294
259 254 263 260 259 264 280 284 270 284 278 284 291 280 289 276 277 281 284 285 288 287 283 299 285 285 291 307 297 301 301 309 299 286 295 290 290 292 294 296 299 292 288
259 260 261 265 275 282 273 279 271 274 284 290 284 282 285 289 311 288 278 283 281 294 298 287 295 290 282 285 291 293 294 298 284 289 290 290 289 293 294 291 295 292 296
257 261 258 269 268 278 272 277 274 289 292 284 289 282 289 284 287 286 284 293 288 295 295 284 289 288 293 295 297 288 294 281 284 283 282 286 291 294 294 294 291 293 296
258 275 261 261 277 273 277 279 277 284 279 283 287 293 290 286 288 287 288 289 282 280 285 292 291 286 293 291 291 289 290 281 276 294 286 294 295 291 289 289 295 292 292
272 269 272 279 262 279 273 274 279 286 286 287 286 285 288 289 287 288 289 291 282 286 293 289 284 287 285 283 289 273 281 294 287 280 293 293 281 283 285 291 291 291 292
254 256 263 267 269 271 270 284 288 285 285 287 273 287 287 288 288 291 283 282 291 292 282 282 281 292 284 287 285 267 272 289 274 282 289 293 289 287 289 290 289 289 287
258 258 262 264 267 272 271 272 275 279 281 284 286 288 288 288 281 285 289 284 284 282 278 284 277 276 284 273 269 289 290 286 275 280 283 288 289 291 288 289 289 286 287
270 264 262 264 267 268 269 274 276 278 281 284 287 288 275 281 277 279 279 281 284 274 275 277 280 276 277 271 272 278 287 283 285 285 294 286 287 287 287 286 288 286 287
262 264 265 267 268 269 273 276 278 281 286 278 271 272 279 280 281 278 281 281 275 275 276 278 279 287 282 287 292 289 286 286 289 282 285 287 292 295 289 288 288 288 286
264 266 266 268 271 275 279 281 284 281 275 276 277 276 278 277 278 289 274 279 277 288 280 279 282 283 282 280 279 280 280 282 287 294 293 292 291 294 298 300 294 292 288
268 267 257 274 276 280 280 270 259 259 267 280 268 270 273 272 272 280 283 277 280 283 282 291 279 281 282 285 287 287 287 293 293 292 294 292 296 297 294 287 297 296 283
269 271 264 268 268 254 254 252 255 260 265 268 264 280 265 267 271 285 285 289 280 279 287 287 282 281 281 284 285 290 293 291 295 294 296 301 299 291 294 294 292 291 294
235 228 231 235 243 250 252 254 257 258 259 259 261 266 268 281 285 276 277 283 277 281 282 282 285 284 286 290 290 291 290 295 296 298 297 301 294 305 300 291 291 290 288
255 239 246 246 241 249 253 259 257 262 262 267 261 260 269 272 273 271 278 285 282 280 284 284 282 285 289 292 288 296 293 297 296 296 296 305 299 292 290 291 289 288 287
249 246 254 250 254 256 257 257 259 263 262 272 269 268 274 274 273 274 283 283 279 283 284 282 286 288 291 292 290 295 297 299 292 301 305 304 295 297 292 292 288 286 284
251 280 268 267 251 268 272 279 277 263 269 265 270 285 279 274 272 282 275 278 288 280 285 288 289 291 296 293 299 295 300 293 303 302 298 306 298 295 292 289 286 281 266
273 240 251 278 247 250 255 280 256 259 289 264 266 268 305 284 279 282 278 288 290 290 290 294 290 295 296 298 299 298 299 306 304 307 301 303 299 296 292 258 243 260 251
275 279 281 281 254 256 265 259 264 279 271 271 267 278 282 277 276 277 283 287 286 291 293 295 294 291 291 298 304 305 303 298 304 301 306 304 300 271 266 238 231 248 219